Jackpot

Texas Poker Multi Jackpot System

Kini Telah hadir Jackpot SUPER ROYAL FLUSH

Kini Telah hadir Jackpot 2000 (khusus table VIP keatas).

Ikutilah global jackpot yang tersedia di system kami, dengan system jackpot terbaru dan pertama di indonesia, anda dapat membeli jackpot dengan harga 100 rupiah saja dan menangkan hadiahnya hingga puluhan juta rupiah.

Jackpot bukanlah suatu keharusan untuk dibeli, namun kami memberikan suatu fitur tambahan untuk member tercinta dari www.kerjapetang.com.

Terdapat tiga pilihan harga jackpot yang bisa anda beli yaitu :100,500,1000 dan 2000(khusus table VIP Keatas) rupiah.

Hadiah dari Multi jackpot system www.kerjapetang.com

  1. full house x 10 harga jackpot yang anda beli.
      (contoh:anda membeli 1000 maka:1000 X10 = 10.000)
  2. four of kind x 250 harga jackpot yang anda beli
      (contoh:anda membeli 1000 maka:1000 X250 = 250.000)
  3. Straight flush x 1200
      (contoh:anda membeli 1000 maka:1000 X1200 = 1.200.000)
  4. Royal flush x 10000 harga jackpot yang anda beli
      (contoh:anda membeli 1000 maka:1000 X10000 = 10.000.000)
  5. SUPER ROYAL FLUSH x 30000 harga jackpot yang anda beli
      (contoh:anda membeli 1000 maka:1000 X30000 = 30.000.000)

Kondisi kartu

  1. full house adalah kondisi kartu dimana kartu anda dan kartu tengah dengan total 7 kartu bisa mendapatkan nilai 5 kartu dengan kombinasi 1 tris(three of kind) dan 1 pair, contoh 3 kartu 10 dan 2 kartu 5
  2. Four of kind adalah kondisi kartu dimana kartu anda dan kartu tengah dengan total 7 kartu bisa mendapatkan nilai 5 kartu dengan kombinasi 4 kartu yang sama jumlah dan 1 kartu apapun juga contoh anda mendapatkan 4 buah kartu angka 3 dan 1 kartu apapun.
  3. Staright flush adalah kondisi kartu dimana kartu anda dan kartu tengah dengan total 7 kartu bisa mendapatkan nilai 5 kartu dengan kombinasi seri / staright dengan kembang yang sama contoh : urutan kartu dari angka 5, 6, 7, 8 , 9 10 dengan kembang yg sama misalnya as hati
  4. Royal flush adalah kondisi kartu dimana kartu anda dan kartu tengah dengan total 7 kartu bisa mendapatkan nilai 5 kartu dengan kombinasi seri / staright dengan kembang yang sama tetapi kartu tersebut haruslah dimulai dari 10. contoh 10, Queen, Jack, King dan aces dengan kembang yang sama
  5. Super Royal flush adalah kondisi kartu dimana Kedua kartu anda digabung dengan 3 kartu pertama meja haruslah royal flush. contoh kartu anda 10,Queen kembang sama dan 3 kartu pertama meja adalah Jack, King dan aces dengan kembang yang sama

Demikian adalah penjelasan dari Multi Jackpot www.kerjapetang.com terima kasih dan selamat bermain salam hoki dari kami

Texas Poker Jackpot Winner

TOP SUPER ROYAL FLUSH
No.TanggalNamaPriceWin
122/09 21:03SAMSUDIN99Super Royal flush6,000,000
222/09 19:41A4627HGSuper Royal flush3,000,000
322/09 10:13THEMIN88Super Royal flush15,000,000
422/09 02:24TAUN101Super Royal flush30,000,000
521/09 14:11ROYALJOZZSuper Royal flush60,000,000
TOP ROYAL FLUSH
No.TanggalNamaPriceWin
122/09 21:29JEMP86Royal flush5,000,000
222/09 21:27BBM22LITERRoyal flush5,000,000
322/09 21:25SIMPANSERoyal flush500,000
422/09 21:20SEPAT93Royal flush2,000,000
522/09 21:18JOANARoyal flush5,000,000
TOP STRAIGHT FLUSH
No.TanggalNamaPriceWin
122/09 21:35UPCLIK666Straight Flush600,000
222/09 21:34BENCLUNG09Straight Flush240,000
322/09 21:33CE4EB5B5Straight Flush1,200,000
422/09 21:32NURRIZKIStraight Flush600,000
522/09 21:28POLLUX39Straight Flush600,000
LATEST JACKPOT
No.TanggalNamaPriceWin
122/09 21:36C22059F7Full House2,000
222/09 21:36PATRICK987Full House2,000
322/09 21:36FRANSIS199Full House20,000
422/09 21:36FUDOUFull House5,000
522/09 21:36SENTUL99Full House2,000
622/09 21:36NONON100Full House10,000
722/09 21:36D7UD3WAFull House1,000
822/09 21:36GUSLINK3Full House2,000
922/09 21:36AFRIE88Full House1,000
1022/09 21:36MAYABUCUFull House2,000
1122/09 21:36GSG__77Full House10,000
1222/09 21:36BHALOX86Full House10,000
1322/09 21:36MANTOY27Four Of A Kind50,000
1422/09 21:36WARGAKITAFull House5,000
1522/09 21:36E95481BAFull House1,000
1622/09 21:36ROMMY98Four Of A Kind50,000
1722/09 21:36BERANDAL77Full House5,000
1822/09 21:36DELIMA08Full House5,000
1922/09 21:36MARNO33Full House10,000
2022/09 21:36ST24Full House2,000
2122/09 21:36ASTIEN_99Full House1,000
2222/09 21:36TUYUL143Full House10,000
2322/09 21:36PDT_REXYFull House1,000
2422/09 21:36BPTD23Full House5,000
2522/09 21:36PALTI06Full House2,000
2622/09 21:36S4NGKUR1Full House20,000
2722/09 21:36JABEJO79Full House5,000
2822/09 21:36SPORT5Full House5,000
2922/09 21:36NRNET10Full House10,000
3022/09 21:36BENSTAK007Full House2,000
3122/09 21:36DADODO15Full House2,000
3222/09 21:36B1454BROFull House500
3322/09 21:36BADUTANJIRFull House500
3422/09 21:36FATMA007Full House1,000
3522/09 21:36ADIQQ88Full House1,000
3622/09 21:36CDQ6SU4CJKFour Of A Kind125,000
3722/09 21:36NAJMIARFull House20,000
3822/09 21:36EMB0L99Four Of A Kind25,000
3922/09 21:36PRATAMA23Full House2,000
4022/09 21:36BANTAIPALFull House2,000
4122/09 21:36D4V1D5Full House5,000
4222/09 21:36BAJIGUR32Full House10,000
4322/09 21:36YAYA_16Full House2,000
4422/09 21:36B312K412Y4Full House2,000
4522/09 21:36SATIA555Full House5,000
4622/09 21:36DAPODIK77Full House1,000
4722/09 21:36MASBOS5555Full House2,000
4822/09 21:36YBBV0MU1BHFull House2,000
4922/09 21:36GOBLINCLUBFull House2,000
5022/09 21:36BUOL99Four Of A Kind50,000

Domino Multi Jackpot System

Ikutilah global jackpot yang tersedia di system kami, dengan system jackpot terbaru dan pertama di indonesia, anda dapat membeli jackpot dengan harga 100 rupiah saja dan menangkan hadiahnya hingga puluhan juta rupiah.

Jackpot bukanlah suatu keharusan untuk dibeli, namun kami memberikan suatu fitur tambahan untuk member tercinta dari www.kerjapetang.com.

Terdapat tiga pilihan harga jackpot yang bisa anda beli yaitu :100,500 dan 1000 rupiah.

Hadiah dari Multi jackpot system www.kerjapetang.com

  1. Murni Kecil x 50 harga jackpot yang anda beli.
      (contoh:anda membeli 1000 maka:1000 X 50 = 50.000)
  2. Murni Besar x 50 harga jackpot yang anda beli
      (contoh:anda membeli 1000 maka:1000 X 50 = 50.000)
  3. BALAK x 100 harga jackpot yang anda beli
      (contoh:anda membeli 1000 maka:1000 X 100 = 100.000)
  4. ENAM DEWA x 6666 harga jackpot yang anda beli
      (contoh:anda membeli 1000 maka:1000 X 6666 = 6.666.000)

Demikian adalah penjelasan dari Multi Jackpot www.kerjapetang.com terima kasih dan selamat bermain salam hoki dari kami

Domino Jackpot Winner

TOP ENAM DEWA
No.TanggalNamaPriceWin
122/09 20:48SINARJYmurni enam6,666,000
222/09 20:26STELEN90murni enam666,600
322/09 19:33MARYANTO70murni enam6,666,000
422/09 19:18ANONIM99murni enam666,600
522/09 18:16MAHO13murni enam3,333,000
TOP BALAK
No.TanggalNamaPriceWin
122/09 21:33JAKET123balak50,000
222/09 21:30ISAF20balak100,000
322/09 21:30SAMPURNA08balak10,000
422/09 21:27KOMALA09balak100,000
522/09 21:24SOLKANbalak50,000
LATEST JACKPOT
No.TanggalNamaPriceWin
122/09 21:36MBOLOKLOKlucky9950,000
222/09 21:36MENSEN90lucky9910,000
322/09 21:36RASAKNA_LEmurni besar50,000
422/09 21:36NBH0704murni besar25,000
522/09 21:35IWAN6666murni besar50,000
622/09 21:35UK13333Zmurni besar50,000
722/09 21:35WINDAQ7777murni besar50,000
822/09 21:35SATU777murni besar50,000
922/09 21:34HAJI_ABASmurni kecil50,000
1022/09 21:34DARA_murni besar25,000
1122/09 21:34OMPONKK017lucky992,500
1222/09 21:34SAMWIRmurni kecil50,000
1322/09 21:34EGHY22murni kecil50,000
1422/09 21:34QUIN3Xmurni kecil5,000
1522/09 21:33FENK525murni kecil50,000
1622/09 21:33DULOH666murni kecil5,000
1722/09 21:33JAKET123balak50,000
1822/09 21:32QKIT86murni besar25,000
1922/09 21:32DEWON121murni kecil50,000
2022/09 21:31SANTAICOYmurni kecil50,000
2122/09 21:31SAWO66murni besar25,000
2222/09 21:31HERRY005murni besar50,000
2322/09 21:30DEDANTUMmurni kecil50,000
2422/09 21:30ISAF20balak100,000
2522/09 21:30SAMPURNA08balak10,000
2622/09 21:29TEMPALOmurni besar25,000
2722/09 21:29GHEMlucky9925,000
2822/09 21:28B61OPI79521murni besar50,000
2922/09 21:28NAKWD1Mmurni besar50,000
3022/09 21:28REZKYPONSEmurni besar50,000
3122/09 21:28ROJACKSEmurni kecil50,000
3222/09 21:28IYAN068murni besar50,000
3322/09 21:27ELORAmurni kecil50,000
3422/09 21:27KOMALA09balak100,000
3522/09 21:26LOHENAmurni kecil25,000
3622/09 21:26UK13333Zlucky9925,000
3722/09 21:25REZKYPONSEmurni kecil50,000
3822/09 21:25MEGHA2607murni kecil25,000
3922/09 21:25SAGOL00murni kecil50,000
4022/09 21:24KAJOL95murni besar5,000
4122/09 21:24PENJOL1975murni kecil50,000
4222/09 21:24SOLKANbalak50,000
4322/09 21:24UJUNGCIPmurni besar25,000
4422/09 21:24DULOH666murni besar5,000
4522/09 21:23NZGDWRVHOLmurni kecil25,000
4622/09 21:22FRISY27murni besar25,000
4722/09 21:22VOL00murni besar50,000
4822/09 21:22JIDAN80murni besar50,000
4922/09 21:22AAAALDSU61murni kecil25,000
5022/09 21:22IWALlucky9950,000

Ceme Multi Jackpot System

Jackpot dilihat dari gabungan kartu pemain dengan kartu bandar. Bandar harus membeli jackpot sebanyak jumlah player yang sedang duduk. Sebagai contoh bila terdapat 3 pemain duduk bermain, dan bandar memutuskan untuk membeli jackpot Rp 1.000, maka pada periode tersebut bandar akan membeli jackpot sebanyak 3xRp1.000 = Rp3.000.

Jackpot bukanlah suatu keharusan untuk dibeli, namun kami memberikan suatu fitur tambahan untuk member tercinta dari www.kerjapetang.com.

Terdapat tiga pilihan harga jackpot yang bisa anda beli yaitu :100,500 dan 1000 rupiah.

Hadiah dari Multi jackpot system www.kerjapetang.com

  1. Murni Kecil x 50 harga jackpot yang anda beli.
      (contoh:anda membeli 1000 maka:1000 X 50 = 50.000)
  2. Murni Besar x 50 harga jackpot yang anda beli
      (contoh:anda membeli 1000 maka:1000 X 50 = 50.000)
  3. BALAK x 200 harga jackpot yang anda beli
      (contoh:anda membeli 1000 maka:1000 X 200 = 200.000)
  4. ENAM DEWA x 6666 harga jackpot yang anda beli
      (contoh:anda membeli 1000 maka:1000 X 6666 = 6.666.000)

Demikian adalah penjelasan dari Multi Jackpot www.kerjapetang.com terima kasih dan selamat bermain salam hoki dari kami

Ceme Jackpot Winner

TOP ENAM DEWA
No.TanggalNamaPriceWin
122/09 20:56RAIJOSSmurni enam6,666,000
222/09 20:56MORRELOmurni enam3,333,000
322/09 20:31KORTOLOmurni enam6,666,000
422/09 20:31NABILAAmurni enam6,666,000
522/09 20:14AXZ442murni enam666,600
TOP BALAK
No.TanggalNamaPriceWin
122/09 21:36DIMAS83balak20,000
222/09 21:36KOYAbalak100,000
322/09 21:36TALINK099balak20,000
422/09 21:36THUNGKERS9balak200,000
522/09 21:34YD50TO7QTBbalak100,000
LATEST JACKPOT
No.TanggalNamaPriceWin
122/09 21:36DIMAS83balak20,000
222/09 21:36EDI99099_murni kecil50,000
322/09 21:36JPOCHAmurni kecil5,000
422/09 21:36AS45ASmurni kecil50,000
522/09 21:36D_APRImurni besar25,000
622/09 21:36YEYEK21murni kecil50,000
722/09 21:36C4C88937murni kecil50,000
822/09 21:36SAKAW303murni kecil50,000
922/09 21:36JAL3434murni kecil50,000
1022/09 21:36KOYAbalak100,000
1122/09 21:36TALINK099balak20,000
1222/09 21:36THUNGKERS9balak200,000
1322/09 21:36BOLON123murni besar50,000
1422/09 21:36MEONG19murni besar25,000
1522/09 21:36ANDE02murni kecil50,000
1622/09 21:36RAJASPORTmurni kecil50,000
1722/09 21:36MRBIGB0SSmurni kecil5,000
1822/09 21:35ADEPmurni besar50,000
1922/09 21:35BDOD88murni kecil50,000
2022/09 21:35GUDALLE220murni kecil5,000
2122/09 21:35ABIWAQQOSHmurni kecil5,000
2222/09 21:35WAHYU57584murni kecil50,000
2322/09 21:35SUTI29murni kecil5,000
2422/09 21:35KODIR63murni kecil50,000
2522/09 21:35FU1210murni kecil50,000
2622/09 21:35AHMADFAmurni besar50,000
2722/09 21:35NADI032murni besar50,000
2822/09 21:35ARTRICOmurni besar25,000
2922/09 21:35RAHAYU538murni besar50,000
3022/09 21:35BITTZ88murni kecil50,000
3122/09 21:35W1RO99murni kecil50,000
3222/09 21:35DK_1503murni kecil5,000
3322/09 21:34JARHAmurni besar50,000
3422/09 21:34YD50TO7QTBbalak100,000
3522/09 21:34BUJHEL00murni kecil5,000
3622/09 21:34AUFAmurni kecil5,000
3722/09 21:34CRUST86murni kecil50,000
3822/09 21:34TUANCRABmurni besar5,000
3922/09 21:34C50HKU538murni besar25,000
4022/09 21:34CR7KIPLImurni kecil50,000
4122/09 21:34CECEP451murni kecil50,000
4222/09 21:34MBL99balak200,000
4322/09 21:34JOHN92murni besar50,000
4422/09 21:34A68YEXS459murni besar50,000
4522/09 21:34A68YEXS459murni besar50,000
4622/09 21:34DONI448murni kecil50,000
4722/09 21:34ADEN88murni besar50,000
4822/09 21:33G060L99murni kecil25,000
4922/09 21:33ANDROID1murni kecil50,000
5022/09 21:33IKAN01murni kecil50,000